• In Österreich
  • Länderverzeichnis
  • Für 7 Tage
  • Wassertemperatur
  • Satellitenkarten
  • Wetterkarte
  • News
  • Widgets
  • user-avatar
    Anmelden

    Stündliche Wetter Fier

    Heute, 18 Oktober, Mittwoch

    Zeit Temperatur Niederschläge Wind Luftdruck Luftfeuchtigkeit
    00:00 +22°C° 0 mm 1 m/S 765 mmHg 50%
    01:00 +21°C° 0 mm 1 m/S 765 mmHg 50%
    02:00 +21°C° 0 mm 1 m/S 765 mmHg 50%
    03:00 +21°C° 0 mm 1 m/S 764 mmHg 50%
    04:00 +21°C° 0 mm 1 m/S 764 mmHg 50%
    05:00 +21°C° 0 mm 1 m/S 764 mmHg 50%
    06:00 +21°C° 0 mm 1 m/S 764 mmHg 50%
    07:00 +22°C° 0 mm 1 m/S 764 mmHg 49%
    08:00 +24°C° 0 mm 1 m/S 764 mmHg 42%
    09:00 +27°C° 0 mm 1 m/S 764 mmHg 36%
    10:00 +29°C° 0 mm 1 m/S 763 mmHg 30%
    11:00 +29°C° 0 mm 1 m/S 763 mmHg 29%
    12:00 +30°C° 0 mm 2 m/S 763 mmHg 28%
    13:00 +30°C° 0 mm 2 m/S 763 mmHg 27%
    14:00 +29°C° 0 mm 2 m/S 762 mmHg 32%
    15:00 +28°C° 0 mm 2 m/S 762 mmHg 37%
    16:00 +27°C° 0 mm 2 m/S 762 mmHg 42%
    17:00 +25°C° 0 mm 1 m/S 762 mmHg 48%
    18:00 +24°C° 0 mm 1 m/S 762 mmHg 54%
    19:00 +20°C° 0 mm 0 m/S 762 mmHg 60%
    20:00 +22°C° 0 mm 1 m/S 763 mmHg 60%
    21:00 +21°C° 0 mm 1 m/S 763 mmHg 59%
    22:00 +21°C° 0 mm 1 m/S 763 mmHg 58%
    23:00 +21°C° 0 mm 1 m/S 763 mmHg 58%

    Morgen, 19 Oktober, Donnerstag

    Zeit Temperatur Niederschläge Wind Luftdruck Luftfeuchtigkeit
    00:00 +21°C° 0 mm 1 m/S 763 mmHg 57%
    01:00 +20°C° 0 mm 1 m/S 763 mmHg 56%
    02:00 +20°C° 0 mm 1 m/S 762 mmHg 55%
    03:00 +20°C° 0 mm 1 m/S 762 mmHg 55%
    04:00 +20°C° 0 mm 1 m/S 762 mmHg 55%
    05:00 +20°C° 0 mm 1 m/S 762 mmHg 54%
    06:00 +19°C° 0 mm 2 m/S 762 mmHg 54%
    07:00 +20°C° 0 mm 2 m/S 762 mmHg 53%
    08:00 +23°C° 0 mm 2 m/S 762 mmHg 49%
    09:00 +25°C° 0 mm 2 m/S 762 mmHg 44%
    10:00 +27°C° 0 mm 2 m/S 762 mmHg 39%
    11:00 +27°C° 0 mm 2 m/S 762 mmHg 38%
    12:00 +28°C° 0 mm 3 m/S 762 mmHg 36%
    13:00 +28°C° 0 mm 3 m/S 762 mmHg 35%
    14:00 +27°C° 0 mm 3 m/S 762 mmHg 39%
    15:00 +26°C° 0 mm 3 m/S 761 mmHg 44%
    16:00 +26°C° 0 mm 3 m/S 761 mmHg 48%
    17:00 +24°C° 0 mm 2 m/S 762 mmHg 55%
    18:00 +21°C° 0 mm 2 m/S 762 mmHg 63%
    19:00 +21°C° 0 mm 1 m/S 762 mmHg 71%
    20:00 +19°C° 0 mm 2 m/S 762 mmHg 71%
    21:00 +19°C° 0 mm 2 m/S 762 mmHg 72%
    22:00 +19°C° 0 mm 2 m/S 762 mmHg 73%
    23:00 +18°C° 0 mm 2 m/S 762 mmHg 73%

    übermorgen, 20 Oktober, Freitag

    Zeit Temperatur Niederschläge Wind Luftdruck Luftfeuchtigkeit
    00:00 +18°C° 0 mm 2 m/S 762 mmHg 73%
    01:00 +18°C° 0 mm 2 m/S 762 mmHg 74%
    02:00 +17°C° 0 mm 2 m/S 762 mmHg 74%
    03:00 +17°C° 0 mm 2 m/S 762 mmHg 73%
    04:00 +17°C° 0 mm 2 m/S 762 mmHg 73%
    05:00 +17°C° 0 mm 2 m/S 762 mmHg 71%
    06:00 +18°C° 0 mm 2 m/S 762 mmHg 69%
    07:00 +18°C° 0 mm 2 m/S 762 mmHg 67%
    08:00 +20°C° 0 mm 2 m/S 762 mmHg 59%
    09:00 +23°C° 0 mm 2 m/S 762 mmHg 51%
    10:00 +26°C° 0 mm 1 m/S 763 mmHg 43%
    11:00 +26°C° 0 mm 2 m/S 762 mmHg 41%
    12:00 +27°C° 0 mm 2 m/S 762 mmHg 40%
    13:00 +27°C° 0 mm 3 m/S 762 mmHg 38%
    14:00 +26°C° 0 mm 2 m/S 762 mmHg 43%
    15:00 +25°C° 0 mm 2 m/S 762 mmHg 47%
    16:00 +25°C° 0 mm 2 m/S 762 mmHg 52%
    17:00 +23°C° 0 mm 2 m/S 762 mmHg 59%
    18:00 +21°C° 0 mm 1 m/S 762 mmHg 67%
    19:00 +20°C° 0 mm 1 m/S 763 mmHg 74%
    20:00 +20°C° 0 mm 1 m/S 763 mmHg 75%
    21:00 +19°C° 0 mm 1 m/S 763 mmHg 75%
    22:00 +19°C° 0 mm 1 m/S 763 mmHg 76%
    23:00 +19°C° 0 mm 1 m/S 763 mmHg 75%

    21 Oktober, Samstag

    Zeit Temperatur Niederschläge Wind Luftdruck Luftfeuchtigkeit
    00:00 +19°C° 0 mm 1 m/S 763 mmHg 75%
    01:00 +18°C° 0 mm 1 m/S 763 mmHg 74%
    02:00 +18°C° 0 mm 1 m/S 763 mmHg 74%
    03:00 +18°C° 0 mm 1 m/S 763 mmHg 73%
    04:00 +18°C° 0 mm 1 m/S 763 mmHg 73%
    05:00 +18°C° 0 mm 1 m/S 763 mmHg 70%
    06:00 +19°C° 0 mm 1 m/S 763 mmHg 68%
    07:00 +18°C° 0 mm 2 m/S 763 mmHg 66%
    08:00 +20°C° 0 mm 2 m/S 763 mmHg 58%
    09:00 +23°C° 0 mm 2 m/S 763 mmHg 51%
    10:00 +25°C° 0 mm 2 m/S 763 mmHg 43%
    11:00 +26°C° 0 mm 3 m/S 763 mmHg 42%
    12:00 +26°C° 0 mm 3 m/S 762 mmHg 41%
    13:00 +27°C° 0 mm 4 m/S 762 mmHg 39%
    14:00 +26°C° 0 mm 4 m/S 762 mmHg 43%
    15:00 +25°C° 0 mm 4 m/S 762 mmHg 47%
    16:00 +23°C° 0 mm 4 m/S 762 mmHg 51%
    17:00 +22°C° 0 mm 3 m/S 762 mmHg 57%
    18:00 +20°C° 0 mm 3 m/S 762 mmHg 64%
    19:00 +18°C° 0 mm 3 m/S 762 mmHg 71%
    20:00 +18°C° 0 mm 2 m/S 763 mmHg 71%
    21:00 +18°C° 0 mm 2 m/S 763 mmHg 70%
    22:00 +18°C° 0 mm 2 m/S 763 mmHg 69%
    23:00 +18°C° 0 mm 2 m/S 763 mmHg 67%

    22 Oktober, Sonntag

    Zeit Temperatur Niederschläge Wind Luftdruck Luftfeuchtigkeit
    00:00 +18°C° 0 mm 2 m/S 762 mmHg 65%
    01:00 +17°C° 0 mm 2 m/S 762 mmHg 63%
    02:00 +17°C° 0 mm 2 m/S 762 mmHg 63%
    03:00 +17°C° 0 mm 2 m/S 762 mmHg 62%
    04:00 +17°C° 0 mm 2 m/S 762 mmHg 61%
    05:00 +17°C° 0 mm 2 m/S 762 mmHg 59%
    06:00 +18°C° 0 mm 2 m/S 762 mmHg 58%
    07:00 +18°C° 0 mm 2 m/S 762 mmHg 56%
    08:00 +21°C° 0 mm 1 m/S 762 mmHg 50%
    09:00 +24°C° 0 mm 1 m/S 762 mmHg 44%
    10:00 +26°C° 0 mm 1 m/S 762 mmHg 38%
    11:00 +26°C° 0 mm 1 m/S 761 mmHg 38%
    12:00 +27°C° 0 mm 2 m/S 760 mmHg 38%
    13:00 +27°C° 0 mm 3 m/S 760 mmHg 38%
    14:00 +26°C° 0 mm 2 m/S 760 mmHg 42%
    15:00 +25°C° 0 mm 2 m/S 759 mmHg 47%
    16:00 +24°C° 0 mm 1 m/S 759 mmHg 52%
    17:00 +23°C° 0 mm 2 m/S 759 mmHg 59%
    18:00 +20°C° 0 mm 2 m/S 759 mmHg 65%
    19:00 +19°C° 0 mm 2 m/S 759 mmHg 72%
    20:00 +19°C° 0 mm 2 m/S 759 mmHg 73%
    21:00 +19°C° 0 mm 3 m/S 759 mmHg 73%
    22:00 +18°C° 0 mm 3 m/S 759 mmHg 74%
    23:00 +18°C° 0,1 mm 4 m/S 758 mmHg 74%

    23 Oktober, Montag

    Zeit Temperatur Niederschläge Wind Luftdruck Luftfeuchtigkeit
    00:00 +18°C° 0,1 mm 4 m/S 758 mmHg 73%
    01:00 +18°C° 0,1 mm 4 m/S 757 mmHg 73%
    02:00 +17°C° 0,6 mm 5 m/S 757 mmHg 74%
    03:00 +17°C° 0,6 mm 5 m/S 756 mmHg 75%
    04:00 +16°C° 0,6 mm 5 m/S 756 mmHg 76%
    05:00 +17°C° 1,8 mm 5 m/S 756 mmHg 77%
    06:00 +18°C° 1,8 mm 4 m/S 755 mmHg 77%
    07:00 +18°C° 1,8 mm 4 m/S 755 mmHg 77%
    08:00 +17°C° 4 mm 4 m/S 755 mmHg 80%
    09:00 +16°C° 4 mm 3 m/S 755 mmHg 83%
    10:00 +16°C° 4 mm 3 m/S 755 mmHg 86%
    11:00 +16°C° 1,2 mm 3 m/S 754 mmHg 83%
    12:00 +16°C° 1,2 mm 3 m/S 754 mmHg 81%
    13:00 +17°C° 1,2 mm 3 m/S 753 mmHg 79%
    14:00 +17°C° 0,4 mm 3 m/S 753 mmHg 78%
    15:00 +17°C° 0,4 mm 2 m/S 753 mmHg 76%
    16:00 +18°C° 0,4 mm 2 m/S 752 mmHg 75%
    17:00 +17°C° 0,1 mm 2 m/S 752 mmHg 77%
    18:00 +16°C° 0,1 mm 2 m/S 752 mmHg 80%
    19:00 +14°C° 0,1 mm 3 m/S 752 mmHg 82%
    20:00 +14°C° 0,1 mm 3 m/S 753 mmHg 82%
    21:00 +14°C° 0,1 mm 3 m/S 753 mmHg 82%
    22:00 +14°C° 0,1 mm 3 m/S 753 mmHg 82%
    23:00 +14°C° 0,3 mm 3 m/S 753 mmHg 82%
    Mehr zeigen